Location: Ferchesar
(52.6477°N, 12.4298°E)
Time: 19:58:28
(UTC+01:00)

BUGSAT 1 - Pass Details

Date: 31 October 2021
Orbit: 558 x 601 km, 98.1° (Epoch: 28 November)

Event Time Altitude Azimuth Distance (km) Brightness Sun altitude
Rises 17:36:52 0° 221° (SW) 2,751 ? -8.8°
Reaches altitude 10° 17:40:49 10° 261° (W) 1,855 ? -9.4°
Maximum altitude 17:41:43 11° 274° (W) 1,815 ? -9.5°
Drops below altitude 10° 17:42:38 10° 287° (WNW) 1,857 ? -9.7°
Sets 17:46:36 0° 327° (NNW) 2,758 ? -10.3°
